| time (UTC) | temp C | wind direction | speed KPH | gust KPH | rain 1hr cm | rain 24hr cm | rain mn cm | humidity % | barometer mb |
| 20260502163004 | 27 | 232 | 3.2 | 6.4 | 0.00 | 0.00 | 0.00 | 44 | 1015.8 |
| 20260502162001 | 26 | 162 | 3.2 | 6.4 | 0.00 | 0.00 | 0.00 | 47 | 1016.0 |
| 20260502161004 | 26 | 162 | 3.2 | 6.4 | 0.00 | 0.00 | 0.00 | 47 | 1016.0 |
| 20260502152001 | 27 | 173 | 6.4 | 16.1 | 0.00 | 0.00 | 0.00 | 39 | 1017.1 |
| 20260502151005 | 27 | 173 | 6.4 | 16.1 | 0.00 | 0.00 | 0.00 | 39 | 1017.1 |
| 20260502123005 | 26 | 173 | 6.4 | 14.5 | 0.00 | 0.00 | 0.00 | 40 | 1018.7 |
| 20260502122002 | 26 | 176 | 6.4 | 17.7 | 0.00 | 0.00 | 0.00 | 42 | 1018.9 |
| 20260502121001 | 26 | 148 | 3.2 | 8.0 | 0.00 | 0.00 | 0.00 | 42 | 1019.0 |
| 20260502115001 | 25 | 166 | 6.4 | 14.5 | 0.00 | 0.00 | 0.00 | 43 | 1019.3 |
| 20260502114004 | 25 | 201 | 4.8 | 11.3 | 0.00 | 0.00 | 0.00 | 44 | 1019.4 |
| 20260502113004 | 25 | 139 | 6.4 | 11.3 | 0.00 | 0.00 | 0.00 | 44 | 1019.6 |
| 20260502112001 | 24 | 142 | 4.8 | 11.3 | 0.00 | 0.00 | 0.00 | 44 | 1019.7 |
| 20260502111001 | 23 | 175 | 6.4 | 11.3 | 0.00 | 0.00 | 0.00 | 45 | 1019.8 |
| 20260502110001 | 23 | 178 | 4.8 | 9.7 | 0.00 | 0.00 | 0.00 | 47 | 1019.9 |
| 20260502105004 | 22 | 171 | 6.4 | 14.5 | 0.00 | 0.00 | 0.00 | 48 | 1020.0 |
| 20260502104001 | 22 | 159 | 4.8 | 9.7 | 0.00 | 0.00 | 0.00 | 49 | 1020.1 |
| 20260502103004 | 21 | 174 | 6.4 | 12.9 | 0.00 | 0.00 | 0.00 | 50 | 1020.3 |
| 20260502102001 | 21 | 142 | 4.8 | 9.7 | 0.00 | 0.00 | 0.00 | 52 | 1020.3 |
| 20260502101001 | 20 | 129 | 3.2 | 11.3 | 0.00 | 0.00 | 0.00 | 54 | 1020.5 |
| 20260502091001 | 16 | 108 | 1.6 | 4.8 | 0.00 | 0.00 | 0.00 | 65 | 1021.4 |
| 20260502071004 | 11 | 65 | 1.6 | 3.2 | 0.00 | 0.00 | 0.00 | 72 | 1022.3 |
| 20260502070004 | 10 | 90 | 1.6 | 4.8 | 0.00 | 0.00 | 0.00 | 73 | 1022.5 |
| 20260502065004 | 10 | 45 | 1.6 | 3.2 | 0.00 | 0.00 | 0.00 | 74 | 1022.4 |
| 20260502064001 | 9 | 90 | 1.6 | 3.2 | 0.00 | 0.00 | 0.00 | 75 | 1022.3 |
| 20260502063000 | 9 | 90 | 1.6 | 3.2 | 0.00 | 0.00 | 0.00 | 75 | 1022.3 |
| 20260502062000 | 8 | 250 | 1.6 | 3.2 | 0.00 | 0.00 | 0.00 | 76 | 1022.5 |
| 20260502061004 | 8 | 210 | 1.6 | 3.2 | 0.00 | 0.00 | 0.00 | 76 | 1022.5 |
| 20260502060000 | 8 | 210 | 1.6 | 3.2 | 0.00 | 0.00 | 0.00 | 76 | 1022.5 |
| 20260502055001 | 7 | 184 | 3.2 | 4.8 | 0.00 | 0.00 | 0.00 | 77 | 1022.5 |
| 20260502054000 | 7 | 205 | 3.2 | 6.4 | 0.00 | 0.00 | 0.00 | 77 | 1022.5 |
| 20260502053004 | 7 | 205 | 3.2 | 6.4 | 0.00 | 0.00 | 0.00 | 77 | 1022.5 |
| 20260502052004 | 6 | 203 | 3.2 | 6.4 | 0.00 | 0.00 | 0.00 | 76 | 1022.4 |
| 20260502051005 | 6 | 225 | 1.6 | 4.8 | 0.00 | 0.00 | 0.00 | 76 | 1022.4 |
| 20260502050005 | 6 | 225 | 1.6 | 4.8 | 0.00 | 0.00 | 0.00 | 76 | 1022.4 |
| 20260502045001 | 6 | 214 | 3.2 | 4.8 | 0.00 | 0.00 | 0.00 | 76 | 1022.4 |
| 20260502044001 | 6 | 214 | 3.2 | 4.8 | 0.00 | 0.00 | 0.00 | 76 | 1022.4 |
| 20260502043001 | 6 | 214 | 3.2 | 4.8 | 0.00 | 0.00 | 0.00 | 76 | 1022.4 |
| 20260502042005 | 6 | 214 | 3.2 | 4.8 | 0.00 | 0.00 | 0.00 | 76 | 1022.4 |
| 20260502041000 | 6 | 214 | 3.2 | 4.8 | 0.00 | 0.00 | 0.00 | 76 | 1022.4 |
| 20260502040005 | 6 | 245 | 1.6 | 4.8 | 0.00 | 0.00 | 0.00 | 75 | 1022.5 |
| 20260502035001 | 6 | 245 | 1.6 | 4.8 | 0.00 | 0.00 | 0.00 | 75 | 1022.5 |
| 20260502034004 | 7 | 218 | 3.2 | 6.4 | 0.00 | 0.00 | 0.00 | 75 | 1022.5 |
| 20260502033005 | 7 | 227 | 1.6 | 4.8 | 0.00 | 0.00 | 0.00 | 75 | 1022.6 |
| 20260502032001 | 7 | 227 | 1.6 | 4.8 | 0.00 | 0.00 | 0.00 | 75 | 1022.6 |
| 20260502031000 | 7 | 226 | 3.2 | 6.4 | 0.00 | 0.00 | 0.00 | 74 | 1022.6 |
| 20260502030004 | 7 | 218 | 1.6 | 4.8 | 0.00 | 0.00 | 0.00 | 74 | 1022.6 |
| 20260502025005 | 7 | 218 | 1.6 | 4.8 | 0.00 | 0.00 | 0.00 | 74 | 1022.6 |
| 20260502024001 | 7 | 221 | 3.2 | 6.4 | 0.00 | 0.00 | 0.00 | 73 | 1022.6 |
| 20260502023000 | 7 | 208 | 3.2 | 6.4 | 0.00 | 0.00 | 0.00 | 73 | 1022.6 |
| 20260502022001 | 7 | 208 | 3.2 | 6.4 | 0.00 | 0.00 | 0.00 | 73 | 1022.6 |
| 20260502021004 | 8 | 225 | 1.6 | 3.2 | 0.00 | 0.00 | 0.00 | 73 | 1022.6 |
| 20260502020005 | 8 | 234 | 1.6 | 3.2 | 0.00 | 0.00 | 0.00 | 72 | 1022.6 |
| 20260502015004 | 8 | 234 | 1.6 | 3.2 | 0.00 | 0.00 | 0.00 | 72 | 1022.6 |
| 20260502014001 | 8 | 204 | 3.2 | 4.8 | 0.00 | 0.00 | 0.00 | 72 | 1022.7 |
| 20260502013001 | 8 | 221 | 1.6 | 3.2 | 0.00 | 0.00 | 0.00 | 72 | 1022.7 |
| 20260502012001 | 8 | 225 | 1.6 | 4.8 | 0.00 | 0.00 | 0.00 | 72 | 1022.8 |
| 20260502011000 | 8 | 223 | 3.2 | 4.8 | 0.00 | 0.00 | 0.00 | 72 | 1022.9 |
| 20260502010004 | 8 | 219 | 3.2 | 6.4 | 0.00 | 0.00 | 0.00 | 71 | 1022.9 |
| 20260502005000 | 8 | 221 | 3.2 | 6.4 | 0.00 | 0.00 | 0.00 | 71 | 1023.0 |
| 20260502004000 | 10 | 227 | 1.6 | 3.2 | 0.00 | 0.00 | 0.00 | 69 | 1023.5 |
| 20260502003001 | 10 | 227 | 1.6 | 3.2 | 0.00 | 0.00 | 0.00 | 69 | 1023.5 |
| 20260502002001 | 10 | 227 | 1.6 | 3.2 | 0.00 | 0.00 | 0.00 | 69 | 1023.5 |
| 20260502001001 | 10 | 227 | 1.6 | 3.2 | 0.00 | 0.00 | 0.00 | 69 | 1023.5 |
| 20260502000001 | 10 | 227 | 1.6 | 3.2 | 0.00 | 0.00 | 0.00 | 69 | 1023.5 |
| 20260501235001 | 10 | 227 | 1.6 | 3.2 | 0.00 | 0.00 | 0.00 | 69 | 1023.5 |
| 20260501234000 | 10 | 235 | 1.6 | 4.8 | 0.00 | 0.00 | 0.00 | 67 | 1023.5 |
| 20260501233001 | 10 | 207 | 3.2 | 6.4 | 0.00 | 0.00 | 0.00 | 67 | 1023.5 |
| 20260501232000 | 10 | 211 | 3.2 | 6.4 | 0.00 | 0.00 | 0.00 | 67 | 1023.6 |
| 20260501231005 | 10 | 214 | 1.6 | 6.4 | 0.00 | 0.00 | 0.00 | 66 | 1023.6 |
| 20260501230001 | 10 | 255 | 3.2 | 6.4 | 0.00 | 0.00 | 0.00 | 66 | 1023.6 |
| 20260501225001 | 11 | 220 | 1.6 | 3.2 | 0.00 | 0.00 | 0.00 | 65 | 1023.6 |
| 20260501224004 | 11 | 212 | 1.6 | 3.2 | 0.00 | 0.00 | 0.00 | 65 | 1023.7 |
| 20260501223001 | 11 | 223 | 3.2 | 6.4 | 0.00 | 0.00 | 0.00 | 64 | 1023.7 |
| 20260501222000 | 11 | 216 | 1.6 | 6.4 | 0.00 | 0.00 | 0.00 | 63 | 1023.7 |
| 20260501221004 | 12 | 207 | 3.2 | 4.8 | 0.00 | 0.00 | 0.00 | 63 | 1023.7 |
| 20260501220001 | 12 | 205 | 3.2 | 6.4 | 0.00 | 0.00 | 0.00 | 63 | 1023.7 |
| 20260501215001 | 12 | 227 | 1.6 | 4.8 | 0.00 | 0.00 | 0.00 | 62 | 1023.7 |
| 20260501214005 | 12 | 239 | 3.2 | 4.8 | 0.00 | 0.00 | 0.00 | 61 | 1023.7 |
| 20260501213006 | 12 | 236 | 3.2 | 4.8 | 0.00 | 0.00 | 0.00 | 60 | 1023.7 |
| 20260501212004 | 13 | 217 | 3.2 | 6.4 | 0.00 | 0.00 | 0.00 | 59 | 1023.7 |
| 20260501211004 | 13 | 201 | 1.6 | 6.4 | 0.00 | 0.00 | 0.00 | 58 | 1023.7 |
| 20260501210005 | 13 | 209 | 1.6 | 4.8 | 0.00 | 0.00 | 0.00 | 58 | 1023.7 |
| 20260501205000 | 14 | 225 | 1.6 | 4.8 | 0.00 | 0.00 | 0.00 | 56 | 1023.7 |
| 20260501204004 | 15 | 219 | 1.6 | 4.8 | 0.00 | 0.00 | 0.00 | 55 | 1023.7 |
| 20260501203000 | 15 | 216 | 1.6 | 4.8 | 0.00 | 0.00 | 0.00 | 54 | 1023.7 |
| 20260501202005 | 15 | 201 | 1.6 | 3.2 | 0.00 | 0.00 | 0.00 | 54 | 1023.7 |
| 20260501201005 | 16 | 211 | 1.6 | 3.2 | 0.00 | 0.00 | 0.00 | 52 | 1023.7 |
| 20260501200001 | 16 | 235 | 1.6 | 3.2 | 0.00 | 0.00 | 0.00 | 50 | 1023.6 |
| 20260501195000 | 17 | 139 | 1.6 | 3.2 | 0.00 | 0.00 | 0.00 | 50 | 1023.6 |
| 20260501194005 | 17 | 156 | 1.6 | 3.2 | 0.00 | 0.00 | 0.00 | 48 | 1023.5 |
| 20260501193001 | 18 | 225 | 1.6 | 1.6 | 0.00 | 0.00 | 0.00 | 46 | 1023.6 |
| 20260501192005 | 18 | 270 | 1.6 | 3.2 | 0.00 | 0.00 | 0.00 | 44 | 1023.5 |
| 20260501191000 | 20 | 270 | 1.6 | 3.2 | 0.00 | 0.00 | 0.00 | 40 | 1023.4 |
| 20260501190005 | 20 | 135 | 1.6 | 4.8 | 0.00 | 0.00 | 0.00 | 37 | 1023.4 |
| 20260501185001 | 21 | 113 | 3.2 | 8.0 | 0.00 | 0.00 | 0.00 | 36 | 1023.4 |
| 20260501184001 | 21 | 111 | 3.2 | 6.4 | 0.00 | 0.00 | 0.00 | 35 | 1023.4 |
| 20260501183004 | 22 | 110 | 3.2 | 6.4 | 0.00 | 0.00 | 0.00 | 34 | 1023.4 |
| 20260501182005 | 22 | 120 | 3.2 | 4.8 | 0.00 | 0.00 | 0.00 | 33 | 1023.4 |
| 20260501181004 | 23 | 108 | 4.8 | 9.7 | 0.00 | 0.00 | 0.00 | 32 | 1023.4 |
| 20260501180005 | 23 | 144 | 4.8 | 11.3 | 0.00 | 0.00 | 0.00 | 31 | 1023.3 |
| 20260501175001 | 23 | 124 | 4.8 | 11.3 | 0.00 | 0.00 | 0.00 | 31 | 1023.3 |
| 20260501174001 | 24 | 126 | 4.8 | 11.3 | 0.00 | 0.00 | 0.00 | 30 | 1023.3 |
| 20260501173001 | 24 | 114 | 6.4 | 14.5 | 0.00 | 0.00 | 0.00 | 29 | 1023.4 |
| 20260501172005 | 25 | 137 | 4.8 | 11.3 | 0.00 | 0.00 | 0.00 | 28 | 1023.7 |
| 20260501171004 | 25 | 137 | 4.8 | 11.3 | 0.00 | 0.00 | 0.00 | 28 | 1023.7 |
| 20260501170000 | 25 | 137 | 4.8 | 11.3 | 0.00 | 0.00 | 0.00 | 28 | 1023.7 |
| 20260501165001 | 25 | 137 | 4.8 | 11.3 | 0.00 | 0.00 | 0.00 | 28 | 1023.7 |
| 20260501164001 | 25 | 137 | 4.8 | 11.3 | 0.00 | 0.00 | 0.00 | 28 | 1023.7 |